This is the latest recevied weather packets stored in our database for station/object KH6DH-13. If no packets are shown the sender has not sent any weather packets the latest 10 day(s).
| Time | Temp. | Humidity | Pressure | Rain* | Wind** | Luminosity | Snow |
|---|---|---|---|---|---|---|---|
| 1777703994 | 22.78° C | - | - | 0 mm | 0.89 m/s, 359° | - | - |
| 1777703393 | 22.78° C | - | - | 0 mm | 1.34 m/s, 103° | - | - |
| 1777702792 | 22.78° C | - | - | 0 mm | 2.68 m/s, 100° | - | - |
| 1777702191 | 22.78° C | - | - | 0 mm | 1.34 m/s, 76° | - | - |
| 1777701590 | 22.78° C | - | - | 0 mm | 0.45 m/s, 163° | - | - |
| 1777700989 | 22.78° C | - | - | 0 mm | 1.34 m/s, 21° | - | - |
| 1777700388 | 22.78° C | - | - | 0 mm | 2.24 m/s, 73° | - | - |
| 1777699787 | 22.78° C | - | - | 0 mm | 2.24 m/s, 124° | - | - |
| 1777699186 | 22.78° C | - | - | 0 mm | 1.79 m/s, 13° | - | - |
| 1777698585 | 23.33° C | - | - | 0 mm | 1.79 m/s, 76° | - | - |
| 1777697984 | 23.33° C | - | - | 0 mm | 1.79 m/s, 38° | - | - |
| 1777697383 | 23.33° C | - | - | 0 mm | 0.89 m/s, 27° | - | - |
| 1777696782 | 23.89° C | - | - | 0 mm | 1.34 m/s, 146° | - | - |
| 1777696181 | 23.89° C | - | - | 0.25 mm | 2.24 m/s, 42° | - | - |
| 1777695580 | 24.44° C | - | - | 0.25 mm | 0.45 m/s, 301° | - | - |
| 1777694979 | 24.44° C | - | - | 0.25 mm | 0.89 m/s, 93° | - | - |
| 1777694378 | 25° C | - | - | 0.25 mm | 1.34 m/s, 56° | - | - |
| 1777693777 | 25.56° C | - | - | 0.25 mm | 1.34 m/s, 77° | - | - |
| 1777693174 | 26.11° C | - | - | 0.25 mm | 1.34 m/s, 321° | - | - |
| 1777692573 | 27.78° C | - | - | 0.51 mm | 0.89 m/s, 75° | - | - |
| 1777691972 | 26.11° C | - | - | 0.51 mm | 2.68 m/s, 53° | - | - |
| 1777691371 | 25° C | - | - | 0.51 mm | 1.34 m/s, 38° | - | - |
| 1777690770 | 24.44° C | - | - | 0.51 mm | 1.79 m/s, 45° | - | - |
| 1777690169 | 24.44° C | - | - | 0.51 mm | 1.34 m/s, 305° | - | - |
| 1777689568 | 25° C | - | - | 0.51 mm | 1.34 m/s, 30° | - | - |
* Rain latest hour (hover to see other rain measurements)
** Current wind speed in m/s (hover to see current wind gust speed)